User: anonymous   Login
Location: Fort Wayne
(41.1310°N, 85.1290°W)
Time: 02:04:40
(UTC-04:00)
Language:

SL-08 RB Rocket - Orbit

View from above orbital plane
View from above orbital plane
View from above satellite
View from above satellite

Ground track
Ground track

The orbit data is extracted from the following two-line orbital elements,

1 26387U 00033D   15087.21192933  .00000940  00000-0  17260-3 0  9995
2 26387 098.0702 156.4104 0027397 036.8190 026.2203 14.67782329788748
Epoch (UTC): 28 March 2015 05:05:10
Eccentricity: 0.0027397
inclination: 98.0702°
perigee height: 649 km
apogee height: 687 km
right ascension of ascending node: 156.4104°
argument of perigee: 36.8190°
revolutions per day: 14.67782329
mean anomaly at epoch: 26.2203°
orbit number at epoch: 78874

The dashed part of the orbit path shows where the satellite is in the earth's shadow,  

DLR